Regional Weather Roundup
Issued by NWS Cleveland, OH

Home | Current Version | Previous Version | Graphics & Text | Print | Product List | Glossary On
Versions: 1 2 3 4 5 6 7 8 9 10 11 12 13 14 15 16 17 18 19 20 21 22 23 24 25 26 27 28 29 30 31 32 33 34 35 36 37 38 39 40 41 42 43 44 45 46 47 48 49 50
000
ASUS41 KCLE 062002
RWRCLE
OHIO REGIONAL WEATHER ROUNDUP
NATIONAL WEATHER SERVICE CLEVELAND, OH
400 PM EDT WED MAY 06 2015

NOTE: "FAIR" INDICATES FEW OR NO CLOUDS BELOW 12,000 FEET WITH NO
SIGNIFICANT WEATHER AND/OR OBSTRUCTIONS TO VISIBILITY.

OHZ001>008-015>018-024>027-034-035-043-044-062100-
   NORTHWEST OHIO

CITY           SKY/WX    TMP DP  RH WIND       PRES   REMARKS
DEFIANCE       SUNNY     72  60  66 E6        30.19F
FINDLAY        SUNNY     78  59  51 NE5       30.17F
TOLEDO EXPRESS SUNNY     69  57  65 E7        30.19F
TOLEDO EXEC    SUNNY     64  56  75 NE10      30.21F
LIMA           SUNNY     80  58  46 N8        30.16F
$$

OHZ009>014-019>023-028>033-038-089-062100-
   NORTHEAST OHIO

CITY           SKY/WX    TMP DP  RH WIND       PRES   REMARKS
CLE-HOPKINS    MOSUNNY   69  59  70 N10       30.22S
CLE-LAKEFRONT  FOG       54  51  90 N5        30.20F VSB 1/4
CUY CO. ARPT   PTSUNNY   72  61  68 N12       30.21S
LORAIN-ELYRIA  MOSUNNY   71  58  63 NE10      30.20S
ASHTABULA      MOSUNNY   73  58  59 NW8       30.20F
AKRON-CANTON   PTSUNNY   83  58  42 W12       30.17F
WOOSTER        MOSUNNY   80  60  50 VRB7      30.17F
MANSFIELD      MOSUNNY   79  60  52 NW10      30.18F
YOUNGSTOWN     PTSUNNY   78  61  55 N13       30.17F
$$

OHZ042-051>053-060>062-070>072-077>081-062100-
  SOUTHWEST OHIO

CITY           SKY/WX    TMP DP  RH WIND       PRES   REMARKS
CINC-COVINGTON MOSUNNY   84  53  34 VRB3      30.15F
CINC-LUNKEN    MOSUNNY   84  57  39 SE5       30.13F
HAMILTON       MOSUNNY   85  52  32 W5        30.15F
DAYTON         MOSUNNY   85  51  31 N3        30.16F
WRIGHT-PAT AFB NOT AVBL
DAYTON GENERAL PTSUNNY   82  51  34 CALM      30.15F
WILMINGTON     SUNNY     83  51  33 SW7       30.15F
$$

OHZ036-037-039>041-045>050-054>059-063>069-073>076-082>088-062100-
  CENTRAL AND SOUTHEAST OHIO

CITY           SKY/WX    TMP DP  RH WIND       PRES   REMARKS
COLUMBUS       MOSUNNY   84  54  35 NW3       30.13F
OSU AIRPORT    MOSUNNY   81  58  45 N8        30.15F
BOLTON FIELD   NOT AVBL
RICKENBACK AFB NOT AVBL
NEWARK         MOSUNNY   83  57  41 NW7       30.14F
MARION         SUNNY     82  56  40 NW10      30.17F
LANCASTER      MOSUNNY   83  52  34 NW7       30.15F
ZANESVILLE     SUNNY     82  53  36 VRB7      30.15F
NEW PHILLY     MOSUNNY   82  57  42 W6        30.16F
$$



USA.gov is the U.S. government's official web portal to all federal, state and local government web resources and services.